DW0805 Ramloese DK current weather conditions

sailwx.info

Wind from 086 at 1 knots gusting 5

Air temperature 15.6° C
Dewpoint 13.9° C

Last reported at 2016-Sep-26 21:25 UTC.
Time now 2016-Sep-26 22:31 UTC

Location: N 56°01' E 012°05'.
View on Google Maps.

See reports from other nearby stations

  
Tides and Currents Weather Stations Pressure Air Temp Water Temp Dewpoint Dewpoint Depression Visibility Wind Speed Wind Dir Waves Ship Positions
date/time (UTC)wind fromknots sea level pressurealtimeterstation pressurevisibilityair tempwater tempwave heightnotes
2016-Sep-26 21:25 086 1 gusting 5 15.6
2016-Sep-26 21:15 005 0 gusting 2 15.0
2016-Sep-26 20:55 001 15.0
2016-Sep-26 20:45 001 15.0
2016-Sep-26 20:25 001 15.6
2016-Sep-26 20:15 001 15.6
2016-Sep-26 19:55 001 15.6
2016-Sep-26 19:45 001 15.6
2016-Sep-26 19:35 001 15.6
2016-Sep-26 19:25 001 16.1
2016-Sep-26 19:15 001 0 gusting 2 16.1
2016-Sep-26 19:05 359 0 gusting 1 16.1
2016-Sep-26 18:55 359 16.1
2016-Sep-26 18:25 359 16.1
2016-Sep-26 18:15 359 16.7
2016-Sep-26 17:55 359 16.7
2016-Sep-26 17:45 359 16.7
2016-Sep-26 17:35 359 16.7
2016-Sep-26 17:15 359 16.7
2016-Sep-26 17:05 359 16.7
2016-Sep-26 16:55 359 16.7
2016-Sep-26 16:45 359 17.2
2016-Sep-26 16:25 359 17.2
2016-Sep-26 16:15 359 17.2
2016-Sep-26 15:55 359 0 gusting 2 17.8
2016-Sep-26 15:45 359 17.8
2016-Sep-26 15:35 359 17.8
2016-Sep-26 15:25 359 18.3
2016-Sep-26 15:15 359 18.3
2016-Sep-26 15:05 359 0 gusting 2 18.3
2016-Sep-26 14:55 359 2 gusting 2 18.3
2016-Sep-26 14:35 359 0 gusting 4 18.3
2016-Sep-26 14:25 009 2 gusting 5 18.9
2016-Sep-26 14:15 356 3 gusting 6 18.9
2016-Sep-26 13:55 347 2 gusting 6 19.4
2016-Sep-26 13:35 319 2 gusting 5 20.0
2016-Sep-26 13:25 305 1 gusting 6 21.1
2016-Sep-26 13:05 318 2 gusting 6 20.6
2016-Sep-26 12:55 324 2 gusting 6 20.6
2016-Sep-26 12:45 180 0 gusting 2 21.1
2016-Sep-26 12:35 180 0 gusting 2 21.1
2016-Sep-26 12:25 180 0 gusting 2 20.6
2016-Sep-26 12:15 180 0 gusting 2 21.1
2016-Sep-26 12:05 179 1 gusting 2 20.6
2016-Sep-26 11:55 180 1 gusting 2 20.0
2016-Sep-26 11:45 179 0 gusting 2 20.0
2016-Sep-26 11:35 179 2 gusting 2 20.0
2016-Sep-26 11:25 178 1 gusting 5 20.0
2016-Sep-26 11:05 226 1 gusting 2 20.0
2016-Sep-26 10:35 226 1 gusting 4 18.9
2016-Sep-26 10:25 226 2 gusting 4 18.3
2016-Sep-26 10:15 225 4 gusting 6 17.8
2016-Sep-26 10:05 225 1 gusting 6 17.8
2016-Sep-26 09:55 225 4 gusting 6 17.2
2016-Sep-26 09:45 225 5 gusting 7 17.2
2016-Sep-26 09:35 234 3 gusting 8 17.8
2016-Sep-26 09:15 226 6 gusting 10 17.8
2016-Sep-26 09:05 227 4 gusting 8 17.8
2016-Sep-26 08:55 214 4 gusting 10 18.3
2016-Sep-26 08:25 182 1 gusting 5 18.3
2016-Sep-26 06:45 155 1 gusting 4 15.0
2016-Sep-26 05:55 164 1 gusting 2 14.4
2016-Sep-26 05:45 165 0 gusting 4 14.4
2016-Sep-26 05:35 167 1 gusting 5 14.4
2016-Sep-26 05:15 133 4 gusting 6 13.9
2016-Sep-26 05:05 138 2 gusting 6 13.9
2016-Sep-26 04:45 166 0 gusting 2 13.9
2016-Sep-26 04:35 147 0 gusting 4 13.9
2016-Sep-26 04:25 147 1 gusting 4 13.9
2016-Sep-26 04:15 148 1 gusting 5 13.9
2016-Sep-26 04:05 153 0 gusting 2 13.9
2016-Sep-26 03:45 153 13.9
2016-Sep-26 03:35 153 0 gusting 2 14.4
2016-Sep-26 03:25 153 0 gusting 6 14.4
2016-Sep-26 03:15 149 3 gusting 6 14.4
2016-Sep-26 02:55 135 1 gusting 5 14.4
2016-Sep-26 02:45 136 2 gusting 6 14.4
2016-Sep-26 02:15 145 2 gusting 6 15.0
2016-Sep-26 02:05 141 2 gusting 7 15.0
2016-Sep-26 01:45 156 2 gusting 8 15.0
2016-Sep-26 01:35 142 4 gusting 10 15.0
2016-Sep-26 01:25 141 5 gusting 10 15.0
2016-Sep-26 01:15 147 5 gusting 8 15.0
2016-Sep-26 00:55 140 6 gusting 10 15.0
2016-Sep-26 00:45 151 5 gusting 8 15.0
2016-Sep-26 00:25 138 4 gusting 8 15.0
2016-Sep-26 00:15 135 4 gusting 8 15.0
2016-Sep-26 00:05 144 4 gusting 8 15.0
2016-Sep-25 23:55 139 4 gusting 8 15.0
2016-Sep-25 23:45 143 4 gusting 10 15.0
2016-Sep-25 23:35 149 5 gusting 8 14.4
2016-Sep-25 23:25 149 5 gusting 7 14.4
2016-Sep-25 22:55 133 4 gusting 8 14.4
2016-Sep-25 22:45 135 5 gusting 8 15.0
2016-Sep-25 22:25 149 4 gusting 10 15.0
2016-Sep-25 22:15 130 6 gusting 10 15.0
2016-Sep-25 22:05 138 5 gusting 7 15.0
2016-Sep-25 21:55 145 5 gusting 8 15.0
2016-Sep-25 21:45 136 5 gusting 8 15.0
2016-Sep-25 21:35 142 5 gusting 8 15.0
2016-Sep-25 21:25 137 4 gusting 11 15.0
2016-Sep-25 21:15 127 5 gusting 10 15.0
2016-Sep-25 21:05 142 5 gusting 10 15.0
2016-Sep-25 20:55 131 5 gusting 11 15.0
2016-Sep-25 20:35 144 5 gusting 10 15.0
2016-Sep-25 20:25 126 5 gusting 10 15.0
2016-Sep-25 20:05 135 5 gusting 8 15.0
2016-Sep-25 19:55 130 5 gusting 10 15.0
2016-Sep-25 19:45 141 4 gusting 10 15.0
2016-Sep-25 19:25 126 5 gusting 10 14.4
2016-Sep-25 19:15 125 4 gusting 7 14.4
2016-Sep-25 19:05 125 4 gusting 7 15.0
2016-Sep-25 18:55 133 4 gusting 8 15.0
2016-Sep-25 18:45 136 4 gusting 7 15.6
2016-Sep-25 18:35 148 5 gusting 8 15.6
2016-Sep-25 18:25 142 4 gusting 10 15.6
2016-Sep-25 18:15 125 4 gusting 10 15.6
2016-Sep-25 18:05 148 5 gusting 8 15.6
2016-Sep-25 17:55 141 4 gusting 10 16.1
2016-Sep-25 17:45 132 4 gusting 10 16.1
2016-Sep-25 17:35 148 5 gusting 8 16.1
2016-Sep-25 17:15 140 5 gusting 7 16.1
2016-Sep-25 16:55 157 3 gusting 10 16.7
2016-Sep-25 16:45 146 5 gusting 8 16.7
2016-Sep-25 16:35 135 5 gusting 10 17.2
2016-Sep-25 16:25 137 4 gusting 8 17.2
2016-Sep-25 16:05 149 3 gusting 6 17.8
2016-Sep-25 15:55 158 2 gusting 8 17.8
2016-Sep-25 15:45 145 2 gusting 7 18.3
2016-Sep-25 15:35 159 2 gusting 11 18.9
2016-Sep-25 15:25 152 2 gusting 8 18.9
2016-Sep-25 15:15 172 6 gusting 11 18.9
2016-Sep-25 15:05 174 4 gusting 10 18.9
2016-Sep-25 14:55 131 2 gusting 7 18.9
2016-Sep-25 14:45 161 1 gusting 7 18.3
2016-Sep-25 14:25 181 6 gusting 11 18.9
2016-Sep-25 13:45 172 6 gusting 12 19.4
2016-Sep-25 13:25 161 3 gusting 8 20.6
2016-Sep-25 13:15 172 4 gusting 8 20.6
2016-Sep-25 12:55 176 6 gusting 11 20.0
2016-Sep-25 12:45 168 5 gusting 12 20.0
2016-Sep-25 12:25 188 6 gusting 13 20.0
2016-Sep-25 12:15 173 6 gusting 13 20.0
2016-Sep-25 12:05 175 6 gusting 13 20.6
2016-Sep-25 11:55 181 6 gusting 12 20.0
2016-Sep-25 11:45 163 5 gusting 10 20.0
2016-Sep-25 11:35 170 6 gusting 12 20.0
2016-Sep-25 11:15 189 6 gusting 13 20.6
2016-Sep-25 11:05 183 6 gusting 12 20.0
2016-Sep-25 10:55 180 7 gusting 12 20.6
2016-Sep-25 10:45 177 6 gusting 12 20.6
2016-Sep-25 10:35 192 8 gusting 13 20.6
2016-Sep-25 10:25 173 6 gusting 10 20.6
2016-Sep-25 10:15 184 7 gusting 11 20.0
2016-Sep-25 09:45 179 5 gusting 8 21.1
2016-Sep-25 09:35 186 4 gusting 10 20.6
2016-Sep-25 09:15 177 5 gusting 11 20.0
2016-Sep-25 09:05 181 6 gusting 8 20.0
2016-Sep-25 08:45 180 5 gusting 7 19.4
2016-Sep-25 08:35 201 3 gusting 10 18.9
2016-Sep-25 08:25 214 3 gusting 8 18.9
2016-Sep-25 08:15 204 3 gusting 8 18.9
2016-Sep-25 07:55 173 6 gusting 8 17.8
2016-Sep-25 07:45 176 4 gusting 8 17.8
2016-Sep-25 07:35 179 3 gusting 8 17.2
2016-Sep-25 07:25 188 2 gusting 8 17.2
2016-Sep-25 07:15 190 2 gusting 11 16.7
2016-Sep-25 07:05 186 4 gusting 10 16.7
2016-Sep-25 06:55 188 5 gusting 8 16.1
2016-Sep-25 06:35 174 5 gusting 10 15.6
2016-Sep-25 06:15 177 4 gusting 7 15.0
2016-Sep-25 06:05 186 6 gusting 10 15.0
2016-Sep-25 05:55 182 4 gusting 8 14.4
2016-Sep-25 05:45 181 2 gusting 7 14.4
2016-Sep-25 05:35 175 0 gusting 7 13.9
2016-Sep-25 05:25 179 1 gusting 6 13.9
2016-Sep-25 05:05 182 2 gusting 6 13.9
2016-Sep-25 04:55 170 1 gusting 5 13.9
2016-Sep-25 04:35 177 1 gusting 6 13.9
2016-Sep-25 04:25 185 1 gusting 6 13.9
2016-Sep-25 04:15 176 2 gusting 6 13.9
2016-Sep-25 04:05 183 3 gusting 6 14.4
2016-Sep-25 03:55 179 2 gusting 6 14.4
2016-Sep-25 03:45 176 1 gusting 6 13.9
2016-Sep-25 03:35 175 2 gusting 6 13.9
2016-Sep-25 03:25 171 1 gusting 6 13.9
2016-Sep-25 03:15 147 13.3
2016-Sep-25 03:05 147 13.9
2016-Sep-25 02:55 147 13.9
2016-Sep-25 02:35 147 0 gusting 6 13.9
2016-Sep-25 02:25 148 3 gusting 6 13.9
2016-Sep-25 02:15 154 1 gusting 4 13.9
2016-Sep-25 01:55 161 0 gusting 5 13.3
2016-Sep-25 01:45 164 0 gusting 5 13.3
2016-Sep-25 01:35 167 0 gusting 2 13.3
2016-Sep-25 01:25 170 0 gusting 2 13.3
2016-Sep-25 01:15 170 13.3
2016-Sep-25 00:55 170 12.8
2016-Sep-25 00:35 173 0 gusting 4 13.3
2016-Sep-25 00:25 174 0 gusting 4 13.3
2016-Sep-25 00:15 178 1 gusting 6 13.3
2016-Sep-25 00:05 180 2 gusting 5 13.3
2016-Sep-24 23:35 191 1 gusting 4 12.8
2016-Sep-24 23:25 198 0 gusting 4 12.8
2016-Sep-24 23:05 207 1 gusting 4 12.8
2016-Sep-24 22:55 209 1 gusting 4 12.2
2016-Sep-24 22:25 211 0 gusting 2 12.2
2016-Sep-24 22:05 211 0 gusting 2 12.2